Back to catalog

SL-16 DEB

AliveLEO
NORAD 22363·DEBRIS·🇷🇺 Russia

Launched Dec 25, 1992 from Baikonur Cosmodrome

Loading…

Next Passes (next 24 hours)

TLE

FreshSource: Space-Track

Epoch: Sep 14, 2026, 00:10 UTC

1 22363U 92093BC  26257.00761516  .00000182  00000-0  15627-3 0  9992
2 22363  71.0321 262.3195 0145412 311.9998  46.8803 13.94497034710514

Track SL-16 DEB in real time with AllMySat

Download on the App Store